Regional Weather Roundup
Issued by NWS

Home | Current Version | Previous Version | Graphics & Text | Print | Product List | Glossary On
Versions: 1 2 3 4 5 6 7 8 9 10 11 12 13 14 15 16 17 18 19 20 21 22 23 24 25 26 27 28 29 30 31 32 33 34 35 36 37 38 39 40 41 42 43 44 45 46 47 48 49 50
000
ASUS43 KIND 222109
RWRIN

WEATHER ROUNDUP FOR INDIANA
NATIONAL WEATHER SERVICE INDIANAPOLIS IN
500 PM EDT SAT APR 22 2017

NOTE: "FAIR" INDICATES FEW OR NO CLOUDS BELOW 12,000 FEET WITH NO
SIGNIFICANT WEATHER AND/OR OBSTRUCTIONS TO VISIBILITY.

* - STATION DOES NOT REPORT WEATHER SUCH AS PRECIPITATION OR FOG.

+ - STATION NOT QUALITY CONTROLLED BY THE NATIONAL WEATHER SERVICE.
    USE DATA WITH CAUTION...ESPECIALLY DEWPOINT AND RELATIVE
    HUMIDITY OBSERVATIONS.

INZ001>003-010>013-019-020-222200-
NORTHWEST INDIANA

CITY           SKY/WX    TMP DP  RH WIND       PRES   REMARKS
GARY /AIRPORT/ MOSUNNY   52  32  46 NE12      30.16F
KNOX *+        SUNNY     61  -4   7 NE10G21   30.10F
LA PORTE +     SUNNY     55  33  44 N15       30.13F
MICHIGAN CITY+ SUNNY     52  30  43 N12       30.15F
MONTICELLO +   MOSUNNY   61  31  33 NE14G20   30.08F
RENSSELAER +   SUNNY     63  28  27 NE16      30.09F
VALPARAISO     CLOUDY    56  32  40 N13       30.13F

$$

LMZ046-743>745-222200-
SOUTHERN LAKE MICHIGAN

STATION/POSITION TIME  TEMP    WIND        PRES    WAVE
                       AIR SEA DIR/SP/G            HT
                 (UTC) (F)     (DEG/KT/KT) (MB)    (FT)
BURNS HARBOR     2040   45      40/  8/  9 1021.7F
MICHIGAN CITY    2040   43      10/  7/  8   N/A

$$

INZ004-005-014>016-021>024-222200-
NORTH CENTRAL INDIANA

CITY           SKY/WX    TMP DP  RH WIND       PRES   REMARKS
ELKHART        SUNNY     59  28  31 E9        30.11F
GOSHEN         SUNNY     61  31  32 NE14G20   30.10F
LOGANSPORT +   CLOUDY    59  32  36 NE13G18   30.09F
ROCHESTER +    CLOUDY    63  28  27 NE13      30.10F
SOUTH BEND     CLOUDY    62  30  29 E8        30.12F
WARSAW +       CLOUDY    61  32  33 NE13G21   30.10F

$$

INZ006>009-017-018-025>027-222200-
NORTHEAST INDIANA

CITY           SKY/WX    TMP DP  RH WIND       PRES   REMARKS
ANGOLA *+      SUNNY     61  52  72 NE8       30.09F
AUBURN +       CLOUDY    59  34  38 E12G17    30.10F
FORT WAYNE     CLOUDY    57  37  47 E12       30.11F
HUNTINGTON +   CLOUDY    56  33  42 NE9G16    30.10F
KENDALLVILLE + CLOUDY    59  34  38 NE9       30.10F

$$

INZ028-029-035-036-043>045-051>053-222200-
WEST CENTRAL INDIANA

CITY           SKY/WX    TMP DP  RH WIND       PRES   REMARKS
CRAWFORDSVL +  PTSUNNY   53  37  53 E17       30.08F
GREENCASTLE +  SUNNY     55  34  44 E13G22    30.06F
LAFAYETTE      CLOUDY    59  37  44 NE14      30.08F
TERRE HAUTE    MOSUNNY   57  36  45 NE17      30.05F

$$

INZ030>032-037>040-046>048-054>057-064-065-222200-
CENTRAL INDIANA

CITY           SKY/WX    TMP DP  RH WIND       PRES   REMARKS
CP ATTERBURY + PTSUNNY   55  41  58 E16       30.05F
COLUMBUS       MOSUNNY   54  37  54 NE16      30.05F
FRANKFORT +    CLOUDY    59  34  38 NE17G24   30.10F
GREENWOOD *+   MOSUNNY   57  36  45 E15G25    30.07F
INDIANAPOLIS   PTSUNNY   57  36  45 E17       30.05F
-EAGLE CREEK   SUNNY     57  36  45 NE10G21   30.06F
KOKOMO +       MOSUNNY   56  35  45 NE21      30.09F
MARION +       CLOUDY    54  36  50 NE15      30.09F
MT COMFORT *+  SUNNY     55  37  50 E15G23    30.07F
SHELBYVILLE    MOSUNNY   57  38  48 NE15G24   30.05F
ZIONSVILLE +   MOSUNNY   53  35  50 NE17      30.09S

$$

INZ033-034-041-042-049-050-058-059-222200-
EAST CENTRAL INDIANA

CITY           SKY/WX    TMP DP  RH WIND       PRES   REMARKS
MUNCIE         PTSUNNY   56  34  43 E20G28    30.07F
RICHMOND +     MOSUNNY   52  36  54 NE16G22   30.05F

$$

INZ060-061-067>069-081>083-085>088-222200-
SOUTHWEST INDIANA

CITY           SKY/WX    TMP DP  RH WIND       PRES   REMARKS
EVANSVILLE     CLOUDY    56  46  69 NE18      29.99F
HUNTINGBURG *+ CLOUDY    53  44  71 NE16      30.00S
WASHINGTON +   CLOUDY    56  38  51 MISG      30.00S

$$

INZ062-063-066-070>080-084-089>092-222200-
SOUTH CENTRAL AND SOUTHEAST INDIANA

CITY           SKY/WX    TMP DP  RH WIND       PRES   REMARKS
BEDFORD +      CLOUDY    55  39  54 NE16G23   30.00F
BLOOMINGTON    CLOUDY    56  37  49 NE13G22   30.02F
MADISON *+     CLOUDY    52  37  58 NE13      30.03F
NORTH VERNON + CLOUDY    54  39  58 NE12      30.03F
SEYMOUR +      CLOUDY    55  39  54 NE16      30.02F

$$





USA.gov is the U.S. government's official web portal to all federal, state and local government web resources and services.